Home   Weather   Faridabad   Past weeks

Flag for India Past Weather in Faridabad, Haryana, India — Yesterday and Last 2 Weeks

82 °F


Feels Like: 81 °F
Forecast: 69 / 90 °F
Wind: 6 mph from West

Location: New Delhi Palam Airport

Current Time: Oct 24, 2016 at 10:47:22 AM

Latest Report: Oct 24, 2016 at 10:00 AM

Visibility: 2 mi

Pressure: 29.86 "Hg

Humidity: 37%

Dew Point: 54 °F

Location of FaridabadLocation

Past Weather in Faridabad — Graph


Faridabad Temperature Yesterday

Maximum temperature yesterday: 91 °F (at 2:00 PM)
Minimum temperature yesterday: 66 °F (at 5:30 AM)
Average temperature yesterday: 79 °F

High & Low Weather Summary for the Past Weeks

High97 °F (Oct 9, 1:30 PM)83% (Oct 11, 5:00 AM)29.95 "Hg (Oct 11, 5:00 AM)
Low64 °F (Oct 16, 6:00 AM)19% (Oct 17, 4:00 PM)29.65 "Hg (Oct 9, 4:30 PM)
Average82 °F46%29.81 "Hg
* Reported Oct 9 9:30 AM — Oct 24 9:30 AM, Faridabad, Weather by CustomWeather, © 2016

Note: Actual official high and low records may vary slightly from our data, if they occured in-between our weather recording intervals... More about our weather records


Faridabad Weather History for the Previous 24 Hours

Scroll right to see more
Time TempWeatherWind HumidityBarometerVisibility
9:30 AM
Mon, Oct 24
79 °FClear.5 mph42%29.86 "Hg1 mi
9:00 AM73 °FClear.5 mph50%29.86 "Hg1 mi
8:30 AM73 °FClear.5 mph50%29.83 "Hg1 mi
8:00 AM72 °FClear.5 mph53%29.83 "Hg1 mi
7:30 AM68 °FClear.5 mph60%29.83 "Hg1 mi
6:30 AM68 °FClear.3 mph60%29.80 "Hg1 mi
6:00 AM68 °FClear.3 mph60%29.80 "Hg1 mi
5:30 AM68 °FClear.3 mph60%29.80 "Hg1 mi
5:00 AM68 °FClear.5 mph64%29.77 "Hg1 mi
4:30 AM68 °FClear.5 mph64%29.77 "Hg1 mi
4:00 AM68 °FClear.3 mph64%29.77 "Hg1 mi
3:30 AM70 °FClear.5 mph64%29.77 "Hg1 mi
3:00 AM70 °FClear.6 mph64%29.77 "Hg1 mi
2:30 AM70 °FClear.No wind60%29.80 "Hg1 mi
2:00 AM70 °FClear.No wind60%29.80 "Hg1 mi
1:30 AM70 °FClear.No wind60%29.80 "Hg1 mi
1:00 AM72 °FClear.No wind57%29.80 "Hg1 mi
12:30 AM72 °FClear.3 mph57%29.80 "Hg1 mi
12:00 AM73 °FClear.5 mph50%29.80 "Hg1 mi
11:30 PM
Sun, Oct 23
73 °FClear.5 mph50%29.80 "Hg1 mi
11:00 PM73 °FClear.5 mph50%29.80 "Hg1 mi
10:30 PM82 °FClear.7 mph35%29.83 "Hg2 mi
10:00 PM82 °FClear.7 mph35%29.83 "Hg2 mi
9:30 PM82 °FClear.7 mph35%29.83 "Hg2 mi
9:00 PM84 °FClear.7 mph31%29.83 "Hg2 mi
8:30 PM84 °FClear.8 mph31%29.83 "Hg2 mi
8:00 PM84 °FClear.8 mph31%29.80 "Hg2 mi
7:30 PM84 °FClear.8 mph31%29.80 "Hg2 mi
7:00 PM84 °FClear.8 mph31%29.80 "Hg2 mi
6:30 PM84 °FClear.7 mph31%29.80 "Hg1 mi
6:00 PM84 °FClear.7 mph29%29.77 "Hg1 mi
5:30 PM86 °FClear.7 mph27%29.77 "Hg1 mi
5:00 PM88 °FClear.9 mph25%29.77 "Hg1 mi
4:30 PM90 °FClear.10 mph24%29.77 "Hg1 mi
3:30 PM91 °FClear.12 mph24%29.77 "Hg1 mi
3:00 PM91 °FClear.12 mph28%29.77 "Hg1 mi
2:00 PM91 °FClear.12 mph30%29.80 "Hg1 mi
1:30 PM90 °FClear.12 mph33%29.80 "Hg1 mi
1:00 PM90 °FClear.13 mph33%29.83 "Hg1 mi
12:30 PM90 °FClear.10 mph33%29.83 "Hg1 mi
12:00 PM88 °FClear.9 mph35%29.86 "Hg1 mi
11:30 AM86 °FClear.9 mph38%29.86 "Hg1 mi
11:00 AM84 °FClear.8 mph40%29.89 "Hg1 mi
10:30 AM81 °FClear.7 mph45%29.89 "Hg2 mi
10:00 AM79 °FClear.7 mph48%29.89 "Hg2 mi
Weather by CustomWeather, © 2016

See weather overviewHow to use our weather pages